Location: Bad Salzschlirf
(50.3750°N, 9.3000°E)
Time: 08:17:22
(UTC+01:00)

ISS - Pass Details

Date: 12 December 2018
Orbit: 401 x 408 km, 51.6° (Epoch: 12 December)

Event Time Altitude Azimuth Distance (km) Brightness Sun altitude
Rises 17:19:22 0° 286° (WNW) 2,320 0.8 -9.1°
Reaches altitude 10° 17:21:33 10° 278° (W) 1,457 0.0 -9.4°
Maximum altitude 17:24:34 36° 210° (SSW) 661 -2.2 -9.8°
Drops below altitude 10° 17:27:35 10° 142° (SE) 1,449 -1.2 -10.2°
Sets 17:29:44 0° 133° (SE) 2,304 -0.2 -10.6°
